FW4761 Weather Reports


Display with metric or nautical units.
time (UTC)temp
F
wind
direction
speed
MPH
gust
MPH
rain 1hr
in
rain 24hr
in
rain mn
in
humidity
%
barometer
mb
20260507124452 52 330 2.0 6.0 0.00 0.00 0.00 78 984.4
20260507123949 51 329 2.0 6.0 0.00 0.00 0.00 79 984.5
20260507123449 51 0 2.0 6.0 0.00 0.00 0.00 80 984.4
20260507122949 50 329 2.0 6.0 0.00 0.00 0.00 80 984.4
20260507122449 50 327 1.0 6.0 0.00 0.00 0.00 81 984.4
20260507121948 49 309 0.0 3.0 0.00 0.00 0.00 81 984.5
20260507121447 49 304 0.0 3.0 0.00 0.00 0.00 81 984.5
20260507120945 49 304 1.0 4.0 0.00 0.00 0.00 81 984.5
20260507120444 49 302 1.0 4.0 0.00 0.00 0.00 82 984.4
20260507115945 49 303 0.0 4.0 0.00 0.00 0.00 82 984.3
20260507115444 49 306 0.0 4.0 0.00 0.00 0.00 82 984.4
20260507114942 49 310 0.0 2.0 0.00 0.00 0.00 82 984.3
20260507114439 49 309 0.0 2.0 0.00 0.00 0.00 82 984.3
20260507113939 49 309 0.0 2.0 0.00 0.00 0.00 82 984.3
20260507113439 49 310 0.0 3.0 0.00 0.00 0.00 82 984.2
20260507112939 49 311 0.0 3.0 0.00 0.00 0.00 82 984.0
20260507112438 49 355 0.0 2.0 0.00 0.00 0.00 82 983.9
20260507111942 49 11 0.0 2.0 0.00 0.00 0.00 82 983.9
20260507111442 50 11 0.0 2.0 0.00 0.00 0.00 82 983.9
20260507110942 50 11 0.0 2.0 0.00 0.00 0.00 81 983.9
20260507110442 50 11 0.0 2.0 0.00 0.00 0.00 81 983.8
20260507105438 50 13 0.0 0.0 0.00 0.00 0.00 81 983.8
20260507104938 50 13 0.0 0.0 0.00 0.00 0.00 80 983.6
20260507104435 50 13 0.0 0.0 0.00 0.00 0.00 80 983.6
20260507103935 50 13 0.0 0.0 0.00 0.00 0.00 79 983.6
20260507103435 50 13 0.0 1.0 0.00 0.00 0.00 80 983.5
20260507102934 50 13 0.0 1.0 0.00 0.00 0.00 79 983.3
20260507101934 51 14 0.0 1.0 0.00 0.00 0.00 79 983.0
20260507100935 51 14 0.0 2.0 0.00 0.00 0.00 78 982.9
20260507100433 51 14 0.0 2.0 0.00 0.00 0.00 79 982.8
20260507095430 51 12 1.0 5.0 0.00 0.00 0.00 79 982.8
20260507094930 51 14 2.0 5.0 0.00 0.00 0.00 79 982.8
20260507094428 51 18 1.0 4.0 0.00 0.00 0.00 79 982.6
20260507093928 51 24 1.0 5.0 0.00 0.00 0.00 79 982.5
20260507093428 51 22 1.0 5.0 0.00 0.00 0.00 79 982.5
20260507092927 51 22 1.0 5.0 0.00 0.00 0.00 78 982.5
20260507092427 52 21 1.0 5.0 0.00 0.00 0.00 79 982.6
20260507091927 52 21 0.0 3.0 0.00 0.00 0.00 79 982.7
20260507091428 52 23 1.0 3.0 0.00 0.00 0.00 79 982.8
20260507090925 52 23 1.0 4.0 0.00 0.00 0.00 79 982.8
20260507090424 52 25 0.0 4.0 0.00 0.00 0.00 79 982.8
20260507085924 52 26 0.0 2.0 0.00 0.00 0.00 79 982.7
20260507085417 52 27 0.0 4.0 0.00 0.00 0.00 79 982.6
20260507084912 52 27 0.0 4.0 0.00 0.00 0.00 79 982.6
20260507084405 52 27 0.0 6.0 0.00 0.00 0.00 79 982.6
20260507083900 52 27 0.0 6.0 0.00 0.00 0.00 79 982.6
20260507083354 52 24 1.0 5.0 0.00 0.00 0.00 79 982.4
20260507082847 52 24 2.0 4.0 0.00 0.00 0.00 80 982.3
20260507082341 52 22 2.0 8.0 0.00 0.00 0.00 80 982.3
20260507081836 52 19 2.0 7.0 0.00 0.00 0.00 80 982.4
20260507081330 53 23 3.0 7.0 0.00 0.00 0.00 80 982.3
20260507080824 53 11 3.0 8.0 0.00 0.00 0.00 81 982.3
20260507080318 53 20 3.0 8.0 0.00 0.00 0.00 81 982.4
20260507075811 53 355 2.0 8.0 0.00 0.00 0.00 81 982.4
20260507075307 53 20 0.0 5.0 0.00 0.00 0.00 81 982.5
20260507074759 53 28 0.0 3.0 0.00 0.00 0.00 81 982.5
20260507074254 53 29 0.0 5.0 0.00 0.00 0.00 81 982.4
20260507073748 53 30 0.0 5.0 0.00 0.00 0.00 81 982.5
20260507073241 53 31 1.0 5.0 0.00 0.00 0.00 81 982.5
20260507072736 53 32 2.0 5.0 0.00 0.00 0.00 80 982.4
20260507072230 53 24 2.0 5.0 0.00 0.00 0.00 80 982.5
20260507071724 53 30 1.0 5.0 0.00 0.00 0.00 80 982.5
20260507071218 53 60 1.0 5.0 0.00 0.00 0.00 80 982.5
20260507070712 53 62 0.0 3.0 0.00 0.00 0.00 80 982.6
20260507070206 53 63 0.0 3.0 0.00 0.00 0.00 80 982.6
20260507065700 53 64 0.0 4.0 0.00 0.00 0.00 80 982.7
20260507065154 53 64 0.0 4.0 0.00 0.00 0.00 80 982.7
20260507064141 53 64 0.0 4.0 0.00 0.00 0.00 80 982.6
20260507063635 53 64 0.0 4.0 0.00 0.00 0.00 80 982.7
20260507063130 53 64 0.0 2.0 0.00 0.00 0.00 80 982.6
20260507062624 53 64 0.0 2.0 0.00 0.00 0.00 80 982.5
20260507062118 53 64 0.0 4.0 0.00 0.00 0.00 80 982.5
20260507061611 53 64 2.0 5.0 0.00 0.00 0.00 79 982.3
20260507061106 53 64 1.0 5.0 0.00 0.00 0.00 79 982.4
20260507060600 53 64 0.0 4.0 0.00 0.00 0.00 79 982.3
20260507060053 53 64 0.0 4.0 0.00 0.00 0.00 79 982.2
20260507055548 53 64 0.0 4.0 0.00 0.00 0.00 79 982.2
20260507054535 54 65 1.0 4.0 0.00 0.00 0.00 79 982.0
20260507054030 54 65 0.0 5.0 0.00 0.00 0.00 78 982.0
20260507053019 54 68 0.0 4.0 0.00 0.00 0.00 79 981.8
20260507052512 54 64 0.0 4.0 0.00 0.00 0.00 79 981.8
20260507052006 53 76 0.0 6.0 0.00 0.00 0.00 80 981.7
20260507051459 53 80 0.0 6.0 0.00 0.00 0.00 80 981.7
20260507050954 53 86 0.0 6.0 0.00 0.00 0.00 80 981.7
20260507045943 53 88 1.0 6.0 0.00 0.00 0.00 80 981.6
20260507045436 53 86 1.0 6.0 0.00 0.00 0.00 80 981.6
20260507044425 53 92 0.0 7.0 0.00 0.00 0.00 79 981.7
20260507043919 54 89 0.0 7.0 0.00 0.00 0.00 79 981.7
20260507043413 54 90 1.0 7.0 0.00 0.00 0.00 79 981.8
20260507042908 54 87 2.0 7.0 0.00 0.00 0.00 78 981.8
20260507042401 54 81 3.0 8.0 0.00 0.00 0.00 78 981.8
20260507041348 55 82 3.0 7.0 0.00 0.00 0.00 78 981.9
20260507040843 54 78 3.0 7.0 0.00 0.00 0.00 78 981.9
20260507040339 54 85 2.0 6.0 0.00 0.00 0.00 79 981.9
20260507035839 54 92 2.0 6.0 0.00 0.00 0.00 79 982.0
20260507035339 54 89 2.0 6.0 0.00 0.00 0.00 79 981.9
20260507034838 54 89 3.0 8.0 0.00 0.00 0.00 79 981.7
20260507034339 54 87 3.0 8.0 0.00 0.00 0.00 79 981.7
20260507033839 55 83 3.0 6.0 0.00 0.00 0.00 79 981.7
20260507033341 55 84 3.0 8.0 0.00 0.00 0.00 78 981.7
20260507032839 55 82 2.0 8.0 0.00 0.00 0.00 78 981.7
20260507032338 55 82 2.0 7.0 0.00 0.00 0.00 78 981.5
20260507031338 56 76 2.0 6.0 0.00 0.00 0.00 77 981.5
20260507030839 56 77 2.0 5.0 0.00 0.00 0.00 77 981.4
20260507030338 56 78 2.0 5.0 0.00 0.00 0.00 77 981.4
20260507025839 56 77 2.0 5.0 0.00 0.00 0.00 77 981.4
20260507025335 56 65 2.0 5.0 0.00 0.00 0.00 77 981.3
20260507024834 56 63 2.0 5.0 0.00 0.00 0.00 77 981.4
20260507024334 56 51 1.0 4.0 0.00 0.00 0.00 77 981.3
20260507023835 56 44 1.0 4.0 0.00 0.00 0.00 76 981.3
20260507021335 56 33 2.0 4.0 0.00 0.00 0.00 75 981.3
20260507020835 57 30 2.0 4.0 0.00 0.00 0.00 74 981.1
20260507020335 57 29 3.0 5.0 0.00 0.00 0.00 74 981.0
20260507015834 57 30 3.0 6.0 0.00 0.00 0.00 74 980.9
20260507015335 57 26 3.0 9.0 0.00 0.00 0.00 73 980.7
20260507014334 58 68 3.0 6.0 0.00 0.00 0.00 72 980.6
20260507013834 58 0 3.0 7.0 0.00 0.00 0.00 72 980.5
20260507013334 58 0 3.0 7.0 0.00 0.00 0.00 71 980.3
20260507012834 59 65 4.0 8.0 0.00 0.00 0.00 71 980.4
20260507012328 59 42 4.0 8.0 0.00 0.00 0.00 71 980.4
20260507011821 59 0 4.0 9.0 0.00 0.00 0.00 70 980.1
20260507010809 60 41 4.0 9.0 0.00 0.00 0.00 69 980.0
20260507010303 60 38 4.0 9.0 0.00 0.00 0.00 69 980.0
20260507005757 60 75 5.0 10.0 0.00 0.00 0.00 69 979.9
20260507005251 61 63 5.0 10.0 0.00 0.00 0.00 68 979.8
20260507004745 60 61 5.0 11.0 0.00 0.00 0.00 69 979.8
20260507004239 60 82 6.0 12.0 0.00 0.00 0.00 69 979.7
20260507003733 60 0 6.0 12.0 0.00 0.00 0.00 69 979.7
20260507003227 60 63 7.0 14.0 0.00 0.00 0.00 69 979.7
20260507002216 61 50 8.0 13.0 0.00 0.00 0.00 68 979.6
20260507001710 61 355 8.0 14.0 0.00 0.00 0.00 68 979.5
20260507001204 61 52 7.0 14.0 0.00 0.00 0.00 68 979.4
20260507000658 61 0 7.0 11.0 0.00 0.00 0.00 68 979.5
20260507000152 61 58 7.0 16.0 0.00 0.00 0.00 68 979.5
20260506235138 61 0 7.0 13.0 0.00 0.00 0.00 68 979.2
20260506234632 62 64 7.0 15.0 0.00 0.00 0.00 67 979.2
20260506234125 62 76 7.0 15.0 0.00 0.00 0.00 67 979.1
20260506233619 62 0 8.0 15.0 0.00 0.00 0.00 67 979.1
20260506233113 62 345 8.0 15.0 0.00 0.00 0.00 67 978.9
20260506232608 62 0 9.0 16.0 0.00 0.00 0.00 67 978.9
20260506232101 62 116 9.0 16.0 0.00 0.00 0.00 67 978.8
20260506231555 62 355 9.0 15.0 0.00 0.00 0.00 67 978.9
20260506231050 62 107 9.0 15.0 0.00 0.00 0.00 67 979.0
20260506230544 62 101 10.0 15.0 0.00 0.00 0.00 67 978.8
20260506225532 63 355 9.0 14.0 0.00 0.00 0.00 66 978.9
20260506225026 63 11 9.0 14.0 0.00 0.00 0.00 66 978.8
20260506224520 63 15 8.0 14.0 0.00 0.00 0.00 66 978.8
20260506224014 63 62 7.0 15.0 0.00 0.00 0.00 66 978.6
20260506223508 63 37 7.0 15.0 0.00 0.00 0.00 66 978.6
20260506222455 63 44 7.0 14.0 0.00 0.00 0.00 66 978.6
20260506221949 63 11 7.0 14.0 0.00 0.00 0.00 65 978.7
20260506221443 64 37 7.0 13.0 0.00 0.00 0.00 65 978.5
20260506220938 64 5 7.0 13.0 0.00 0.00 0.00 64 978.5
20260506220431 64 0 6.0 13.0 0.00 0.00 0.00 64 978.5
20260506215926 64 27 6.0 12.0 0.00 0.00 0.00 65 978.5
20260506215420 64 351 8.0 14.0 0.00 0.00 0.00 64 978.6
20260506213902 65 9 7.0 13.0 0.00 0.00 0.00 63 978.6
20260506212343 64 61 8.0 14.0 0.00 0.00 0.00 64 978.4
20260506211837 64 69 8.0 14.0 0.00 0.00 0.00 63 978.5
20260506211331 65 73 7.0 13.0 0.00 0.00 0.00 64 978.6
20260506210825 65 327 6.0 13.0 0.00 0.00 0.00 63 978.7
20260506210319 65 55 5.0 12.0 0.00 0.00 0.00 63 978.6
20260506205813 65 59 6.0 12.0 0.00 0.00 0.00 63 978.8
20260506205307 65 0 7.0 14.0 0.00 0.00 0.00 62 978.8
20260506204801 65 351 7.0 14.0 0.00 0.00 0.00 63 978.9
20260506204256 65 10 6.0 14.0 0.00 0.00 0.00 64 979.1
20260506203750 65 19 5.0 13.0 0.00 0.00 0.00 63 979.1
20260506202737 65 0 5.0 13.0 0.00 0.00 0.00 62 979.1
20260506202232 65 46 5.0 13.0 0.00 0.00 0.00 63 979.1
20260506200713 65 0 4.0 8.0 0.00 0.00 0.00 62 979.1
20260506200207 64 0 5.0 12.0 0.00 0.00 0.00 64 979.0
20260506195702 64 0 5.0 12.0 0.00 0.00 0.00 63 978.9
20260506195157 65 0 5.0 11.0 0.00 0.00 0.00 63 978.7
20260506194649 65 175 5.0 11.0 0.00 0.00 0.00 63 978.8
20260506193637 64 0 6.0 16.0 0.00 0.00 0.00 63 978.5
20260506193131 64 0 7.0 16.0 0.00 0.00 0.00 63 978.3
20260506192626 63 109 8.0 15.0 0.00 0.00 0.00 64 978.5
20260506192126 63 344 7.0 13.0 0.00 0.00 0.00 64 978.5
20260506191626 63 118 8.0 15.0 0.00 0.00 0.00 64 978.6
20260506191126 62 355 8.0 15.0 0.00 0.00 0.00 65 978.6
20260506190626 62 82 6.0 14.0 0.00 0.00 0.00 64 978.7
20260506190125 62 117 6.0 14.0 0.00 0.00 0.00 64 978.8
20260506185624 62 120 7.0 14.0 0.00 0.00 0.00 65 978.8
20260506185124 62 107 7.0 14.0 0.00 0.00 0.00 65 978.8
20260506184623 62 94 7.0 14.0 0.00 0.00 0.00 65 978.6
20260506184122 62 67 7.0 15.0 0.00 0.00 0.00 65 978.5
20260506183122 62 78 11.0 19.0 0.00 0.00 0.00 65 978.5
20260506182621 62 0 10.0 19.0 0.00 0.00 0.00 64 978.6
20260506182122 62 99 9.0 20.0 0.00 0.00 0.00 64 978.8
20260506180618 61 70 8.0 16.0 0.00 0.00 0.00 65 978.9
20260506175618 61 120 8.0 16.0 0.00 0.00 0.00 66 979.1
20260506175117 62 121 7.0 16.0 0.00 0.00 0.00 65 979.0
20260506174618 62 0 6.0 15.0 0.00 0.00 0.00 66 979.2
20260506173117 60 62 7.0 15.0 0.00 0.00 0.00 67 979.4
20260506172117 59 17 8.0 15.0 0.00 0.00 0.00 67 979.4
20260506171118 59 29 9.0 16.0 0.00 0.00 0.00 68 979.4
20260506170118 58 26 9.0 17.0 0.00 0.00 0.00 68 979.3
20260506165617 58 39 8.0 17.0 0.00 0.00 0.00 68 979.2
20260506165118 58 355 8.0 14.0 0.00 0.00 0.00 68 979.4
20260506164617 58 57 9.0 16.0 0.00 0.00 0.00 68 979.3
20260506164110 58 14 8.0 16.0 0.00 0.00 0.00 69 979.3
20260506163604 57 51 7.0 15.0 0.00 0.00 0.00 70 979.5
20260506163058 56 49 9.0 15.0 0.00 0.00 0.00 70 979.2
20260506162047 56 51 7.0 14.0 0.00 0.00 0.00 71 979.4
20260506161540 56 0 5.0 12.0 0.00 0.00 0.00 71 979.8
20260506160023 55 44 4.0 10.0 0.00 0.00 0.00 72 980.1
20260506155517 55 342 2.0 7.0 0.00 0.00 0.00 72 980.2
20260506154504 54 82 1.0 7.0 0.00 0.00 0.00 71 980.7
20260506153958 55 55 2.0 8.0 0.00 0.00 0.00 72 980.7
20260506152947 54 15 6.0 13.0 0.00 0.00 0.00 72 979.9
20260506152440 54 36 6.0 12.0 0.00 0.00 0.00 72 979.8
20260506151934 54 355 5.0 12.0 0.00 0.00 0.00 72 979.9
20260506151427 54 16 5.0 10.0 0.00 0.00 0.00 73 979.9
20260506150920 54 66 6.0 12.0 0.00 0.00 0.00 73 979.6
20260506150414 54 41 6.0 13.0 0.00 0.00 0.00 73 979.7
20260506145908 54 0 4.0 13.0 0.00 0.00 0.00 74 979.7
20260506144856 53 42 6.0 14.0 0.00 0.00 0.00 74 979.8
20260506144351 53 344 5.0 10.0 0.00 0.00 0.00 75 979.7
20260506143845 53 22 5.0 10.0 0.00 0.00 0.00 75 979.8
20260506143338 53 12 6.0 13.0 0.00 0.00 0.00 76 979.5
20260506142832 53 9 6.0 13.0 0.00 0.00 0.00 76 979.5
20260506142326 53 9 4.0 11.0 0.00 0.00 0.00 76 979.6
20260506141822 53 44 4.0 9.0 0.00 0.00 0.00 75 979.6
20260506141315 53 53 7.0 14.0 0.00 0.00 0.00 74 979.4
20260506135756 53 51 6.0 16.0 0.00 0.00 0.00 75 979.0
20260506135250 53 32 6.0 12.0 0.00 0.00 0.00 75 979.0
20260506133733 53 26 5.0 12.0 0.00 0.00 0.00 75 978.8
20260506133227 53 52 6.0 11.0 0.00 0.00 0.00 75 978.7
20260506132721 52 9 6.0 12.0 0.00 0.00 0.00 75 978.7
20260506132214 52 53 6.0 12.0 0.00 0.00 0.00 76 978.6
20260506131708 52 69 6.0 14.0 0.00 0.00 0.00 76 978.6
20260506131202 52 57 8.0 14.0 0.00 0.00 0.00 76 978.4
20260506130657 52 29 7.0 14.0 0.00 0.00 0.00 76 978.4
20260506130150 52 74 5.0 11.0 0.00 0.00 0.00 77 978.4
20260506125645 52 34 5.0 10.0 0.00 0.00 0.00 77 978.3
20260506125139 52 54 4.0 10.0 0.00 0.00 0.00 77 978.3